Home   Weather   Gmünd   Past weeks

Flag for Austria Past Weather in Gmünd, Lower Austria, Austria — Yesterday and Last 2 Weeks

Now
45 °F

Quite cool.


Feels Like: 41 °F
Forecast: 32 / 35 °F
Wind: 7 mph from Northwest

Location: Retz

Current Time: Apr 26, 2017 at 7:38:54 pm

Latest Report: Apr 26, 2017 at 6:00 pm


Visibility: N/A

Pressure: 29.81 "Hg

Humidity: 87%

Dew Point: 41 °F

Location of GmündLocation

Past Weather in Gmünd — Graph

°F

Gmünd Temperature Yesterday

Maximum temperature yesterday: 64 °F (at 6:00 pm)
Minimum temperature yesterday: 40 °F (at 7:00 am)
Average temperature yesterday: 51 °F

High & Low Weather Summary for the Past Weeks

 TemperatureHumidityPressure
High64 °F (Apr 25, 6:00 pm)97% (Apr 17, 9:00 pm)30.51 "Hg (Apr 17, 9:00 pm)
Low34 °F (Apr 20, 6:00 am)37% (Apr 24, 6:00 pm)29.67 "Hg (Apr 25, 7:00 pm)
Average46 °F67%30.05 "Hg
* Reported Apr 11 6:00 pm — Apr 26 6:00 pm, Gmünd, Weather by CustomWeather, © 2017

Note: Actual official high and low records may vary slightly from our data, if they occured in-between our weather recording intervals... More about our weather records

Advertising

Gmünd Weather History for the Previous 24 Hours

Scroll right to see more
 ConditionsComfort  
Time TempWeatherWind HumidityBarometerVisibility
6:00 pm
Wed, Apr 26
45 °FQuite cool.7 mph87%29.81 "HgN/A
5:00 pm46 °FCool.7 mph88%29.79 "HgN/A
4:00 pm47 °FCool.6 mph86%29.78 "HgN/A
3:00 pm49 °FCool.3 mph82%29.78 "HgN/A
2:00 pm49 °FOvercast.3 mph84%29.77 "Hg11 mi
1:00 pm49 °FCool.3 mph83%29.76 "HgN/A
12:00 pm49 °FCool.2 mph83%29.76 "HgN/A
11:00 am48 °FCool.3 mph84%29.76 "HgN/A
10:00 am46 °FCool.5 mph87%29.76 "HgN/A
9:00 am45 °FQuite cool.5 mph85%29.75 "HgN/A
8:00 am45 °FOvercast.6 mph83%29.74 "Hg6 mi
7:00 am45 °FOvercast.5 mph86%29.75 "Hg5 mi
6:00 am46 °FCool.5 mph87%29.73 "HgN/A
5:00 am47 °FCool.5 mph84%29.73 "HgN/A
4:00 am48 °FCool.3 mph88%29.74 "HgN/A
3:00 am48 °FCool.1 mph91%29.74 "HgN/A
2:00 am48 °FCool.No wind93%29.75 "HgN/A
1:00 am49 °FCool.2 mph91%29.77 "HgN/A
12:00 am49 °FCool.1 mph86%29.75 "HgN/A
11:00 pm
Tue, Apr 25
50 °FCool.6 mph87%29.74 "HgN/A
10:00 pm50 °FCool.8 mph91%29.73 "HgN/A
9:00 pm52 °FCool.8 mph82%29.70 "HgN/A
8:00 pm56 °FSprinkles. Overcast.8 mph72%29.69 "Hg7 mi
7:00 pm62 °FRefreshingly cool.2 mph57%29.67 "HgN/A
Weather by CustomWeather, © 2017

See weather overviewHow to use our weather pages